Simultaneous Nadir Overpasses (SNOs) Predictions

Prediction of SNOs between GOES-15 and METOP-A Satellite Orbit:

Table of predicted SNOs for the next 14.0 days since TLE Epoch: 11/10/2012
Index Date Time (GOES-15) GOES-15 Lat,Lon METOP-A Lat,Lon Distance(km) Time Diff (sec)
1 11/10/2012 18:42:42 -0.26,-134.68 0.58,-138.43 427.87 80
2 11/11/2012 18:24:42 -0.27,-134.63 -0.55,-133.44 136.73 80
3 11/13/2012 06:43:39 0.25,-134.56 -0.52,-138.01 394.28 80
4 11/14/2012 06:20:18 0.26,-134.50 0.56,-133.01 169.46 80
5 11/15/2012 18:39:07 -0.24,-134.42 0.44,-137.56 357.86 80
6 11/16/2012 18:21:06 -0.25,-134.37 -0.66,-132.56 206.10 80
7 11/18/2012 06:40:02 0.23,-134.28 -0.40,-137.14 325.09 80
8 11/19/2012 06:16:40 0.24,-134.23 0.72,-132.14 238.36 80
9 11/20/2012 18:35:28 -0.22,-134.13 0.35,-136.67 289.54 80
10 11/21/2012 18:17:26 -0.23,-134.08 -0.79,-131.68 274.39 80
11 11/23/2012 06:36:22 0.21,-134.00 -0.27,-136.25 256.31 80
12 11/24/2012 06:12:59 0.22,-133.93 0.83,-131.24 307.00 80




NCC Satellite Simultaneous Nadir Overpasses (SNOs) Prediction Service
